ATLAS 5 CENTAUR DEB, 44666

Orbit data source: Space-Track

ATLAS 5 CENTAUR DEB, 44666 is space debris in HEO originally from a launch on Wed, 17 Oct 2018 UTC launched from the Air Force Eastern Test Range (AFETR). Debris objects in space refer to the collection of defunct objects orbiting the Earth. Examples of debris include non-operational satellites, rocket bodies, and fragments generated from explosions, collisions, or faulty payload assembly.

Loading next visibility...
Identifier
44666, 2018-079AC
Orbit
HEO
Last TLE update
3 days ago
Origin
Manufacturer
ULA Decatur
Mission
Spacecraft
Bus & Motor
Unknown
Mass
Unknown
Launch date (UTC)
2018-10-17 (7 years ago)
Launch vehicle
Unknown
Launch site
Air Force Eastern Test Range (AFETR)
Object type
Payload
Rocket body
Debris
Shape & HBR
Unknown
Radar Cross Section
RCS unknown

Expand to show TLE details & history

TLE from 3 days ago
0 ATLAS 5 CENTAUR DEB
1 44666U 18079AC  25130.01351556 -.00000064  00000-0  00000-0 0  9999
2 44666  12.6066  66.9234 4457787 263.4775  45.6621  1.90672361 41335
Epoch: 2025-05-10T00:19Z
Definitive object data (Epoch: 2025-05-10T00:19:27.744Z)
Latitude
0.00001°
Longitude
-166.10241°
Altitude
16,801.424 km
Speed
4.459 km/s
True Right ascension
04h 27m 17s
True Declination
0° 00' 00"
Sunlit
Object was in daylight at TLE epoch
Visualization TLE readout
Latitude
11.42063°
Longitude
-101.94557°
Altitude
31,614.677 km
Speed
2.544 km/s
Apparent Right ascension
08h 15m 08s
Apparent Declination
5° 07' 08"
Sunlit
Object is in daylight
Visualization observer readout
Local Sidereal Time
15:26:19
Azimuth
285.541° WNW
Elevation
-10.148°
Doppler factor
1
Orbital elements
Apogee altitude
33,342.077 km
Perigee altitude
8,848.113 km
Semi-major axis
27,473.232 km
Eccentricity
0.4457787
Inclination
12.6066°
RAAN
66.9234°
Arg. of periapsis
263.4775°
True anomaly
96.61063°
Mean anomaly
45.6621°
Eccentric anomaly
69.60171°
Mean motion
0.47663 °/min
BSTAR
Unknown
Orbital period
755.31 mins
Loading maneuver chart data...
Loading SW <> Apogee altitude chart data...

ATLAS 5 CENTAUR DEB Visibility forecast

Observer location: undefined°, undefined°

Span
Click to sort rows by Start time (UTC) header in descending order
Start Az.
Max El. time (UTC)
Max El. Az.
Max El.
End time (UTC)
End Az.
117 mins2025-05-13 14:49:37.019Z203.14° SW2025-05-13 15:22:37.019Z159.371° S15.44°2025-05-13 16:46:37.019Z108.388° ESE
391 mins2025-05-13 18:17:37.019Z95.895° ESE2025-05-13 22:40:37.019Z97.51° ESE17.852°2025-05-14 00:48:37.019Z98.352° ESE
|